Tracking 18942 objects as of 18-Jan-2018
HD Live streaming from Space Station
objects crossing your sky now

ARIANE 5 R/B

Track ARIANE 5 R/B now!


NORAD ID: 39218
Int'l Code: 2013-038D
Perigee: 224.5 km
Apogee: 32,455.1 km
Inclination: 3.2 °
Period: 567.7 minutes
Semi major axis: 22710 km
RCS: Unknown
Launch date: July 25, 2013
Source: (TBD)
Launch site: FRENCH GUIANA (FRGUI)

Note: This is a ROCKET BODY
aabbcc
Your satellite tracking list
Your tracking list is empty




NASA's NSSDC Master Catalog

Two Line Element Set (TLE):
1 39218U 13038D   18017.69575739 +.00003632 +00000-0 +40968-3 0  9990
2 39218 003.2227 058.9893 7095893 192.8269 129.1872 02.53661762039472
Source of the keplerian elements: AFSPC